STARLINK-32569, 61867

Orbit data source: Space-Track

STARLINK-32569, 61867 is a payload satellite owned by SpaceX/Seattle (US) in LEO that was launched on Thu, 07 Nov 2024 UTC via an FALCON 9 launch vehicle from the Air Force Eastern Test Range (AFETR). Payload-class satellites include a variety of spacecraft equipped with specific instruments for various scientific and technological missions. These include communications satellites like Starlink; space stations such as the ISS; scientific satellites like the Hubble; Earth observation satellites from companies like Planet Labs, Umbra, and HawkEye 360; GPS; miniature CubeSats for education and research; and military/defense satellites.

Loading next visibility...
Identifier
61867, 2024-202Y
Orbit
LEO
Country
Flag of USUS
Related business
Manufacturer
SpaceX/Seattle
Mission
Operational spacecraft
Bus & Motor
STARLINK V2M, Unknown motor
Mass
730 kg wet, ~700 kg dry
Launch date (UTC)
2024-11-07 (1 year ago)
Launch vehicle
FALCON 9
Launch site
Air Force Eastern Test Range (AFETR)
Object type
Payload
Rocket body
Debris
Shape & HBR
Unknown shape, 17.7 m
Radar Cross Section
Large (>1 m²)

Expand to show TLE details & history
Last TLE update: 11 hours ago

TLE from 11 hours ago
0 STARLINK-32569
1 61867U 24202Y   25298.01724599  .00001137  00000-0  50843-4 0  9997
2 61867  43.0036 284.5939 0001024 261.4556  98.6180 15.27574040 54581
Epoch: 2025-10-25T00:24Z
TLE epoch observation values (Epoch: 2025-10-25T00:24:50.053Z)
Latitude
Longitude
-115.26849°
Altitude
482.948 km
Speed
7.626 km/s
True Right ascension
18h 58m 22s
True Declination
0° 00' 00"
Sunlit
Object was in daylight at epoch
Visualization orbit readout
Latitude
Unknown
Longitude
Unknown
Altitude
Unknown
Speed
Unknown
Apparent Right ascension
Unknown
Apparent Declination
Unknown
Sunlit
N/A
Visualization observer readout
Local Sidereal Time
06:30:23
Azimuth
Unknown
Elevation
Unknown
Doppler factor
Unknown
Orbital elements
Apogee altitude
485.714 km
Perigee altitude
484.309 km
Semi-major axis
6,863.149 km
Eccentricity
0.0001
Inclination
43.0036°
RAAN
284.5939°
Arg. of periapsis
261.4556°
True anomaly
98.6296°
Mean anomaly
98.618°
Eccentric anomaly
98.6238°
Mean motion
3.81732 °/min
Orbital period
94.31 mins
BSTAR
0.000050843
Loading maneuver chart data...
Computing Atmospheric mass density...
Loading historical data...
Loading historical data...
Loading historical data...
Loading historical data...
Loading historical data...
Loading historical data...
Loading historical data...

Documentation

Showing up to 5 results
|